Location: Caltech
(34.1382°N, 118.1253°W)
Time: 00:20:50
(UTC-07:00)

Cosmos 1125 Rocket - Visible Passes

Search period start: 26 March 2017 00:00
Search period end: 05 April 2017 00:00
Orbit: 758 x 780 km, 74.0° (Epoch: 24 March)

Date Brightness Start Highest point End Pass type
(mag) Time Alt. Az. Time Alt. Az. Time Alt. Az.
26 Mar 6.1 05:55:43 10° N 05:59:59 24° ENE 06:04:16 10° ESE visible
26 Mar 3.8 20:28:23 10° SSW 20:33:33 70° WNW 20:38:45 10° NNE visible
27 Mar 6.6 05:20:12 10° NNE 05:23:00 14° ENE 05:25:47 10° E visible
27 Mar 3.4 19:51:45 10° S 19:56:51 65° ESE 20:02:01 10° NNE visible
27 Mar 6.6 21:37:01 10° W 21:39:24 13° WNW 21:41:48 10° NNW visible
28 Mar 5.9 20:58:21 10° WSW 21:02:23 23° WNW 21:06:27 10° NNW visible
29 Mar 5.0 05:47:02 10° N 05:52:03 42° ENE 05:57:02 10° SE visible
29 Mar 5.0 20:20:40 10° SW 20:25:29 39° WNW 20:30:22 10° N visible
30 Mar 6.0 05:10:53 10° N 05:15:10 24° ENE 05:19:26 10° ESE visible
30 Mar 3.9 19:43:33 10° SSW 19:48:42 70° WNW 19:53:55 10° NNE visible
31 Mar 6.6 04:35:22 10° NNE 04:38:10 14° ENE 04:40:58 10° E visible
31 Mar 3.6 06:15:26 10° NNW 06:20:39 61° WSW 06:25:52 10° S visible
31 Mar 6.7 20:52:10 10° W 20:54:34 13° WNW 20:56:58 10° NNW visible
01 Apr 3.8 05:38:40 10° NNW 05:43:59 75° ENE 05:49:16 10° SSE visible
01 Apr 6.2 20:13:30 10° WSW 20:17:33 23° WNW 20:21:38 10° NNW visible
02 Apr 4.8 05:02:11 10° N 05:07:13 42° ENE 05:12:12 10° SE visible
02 Apr 5.2 19:35:49 10° SW 19:40:38 39° WNW 19:45:32 10° N visible
03 Apr 5.8 04:26:03 10° N 04:30:20 24° ENE 04:34:37 10° ESE visible
03 Apr 4.2 06:07:40 10° NW 06:12:24 34° W 06:17:07 10° SSW visible
04 Apr 6.5 03:50:31 10° NNE 03:53:20 14° ENE 03:56:08 10° E visible
04 Apr 3.5 05:30:36 10° NNW 05:35:49 61° WSW 05:41:02 10° S visible
04 Apr 6.7 20:07:18 10° W 20:09:43 13° WNW 20:12:09 10° NNW visible
